Theta_e
317 318 319 320 322 322 322 320 324 328 330 329 328 325 326 327 326 319 312 327 325 329 325 319 320 320 320 317 316 316 308 305 305 301 305 311 309 311 313 314 317 319 317 326 334
316 318 319 320 321 322 321 320 318 327 329 329 327 325 324 325 316 314 327 325 327 331 321 318 316 317 314 317 315 313 309 311 314 310 305 310 310 310 310 312 312 316 322 331 333
316 317 318 319 320 320 321 320 318 324 328 329 327 325 323 319 308 310 326 327 330 326 325 326 321 317 308 314 315 313 308 313 309 307 308 306 307 308 308 307 311 312 318 329 329
315 316 317 318 319 319 319 319 318 322 327 328 326 324 322 316 300 318 326 329 330 322 320 316 316 310 307 308 316 309 313 312 308 306 305 305 307 305 307 310 310 312 320 327 327
316 316 316 316 318 318 319 319 318 317 326 326 325 323 316 306 309 319 325 328 319 315 318 312 310 311 309 309 312 310 311 309 308 307 308 308 307 307 307 310 311 311 318 324 327
314 315 315 316 315 316 318 319 320 318 326 325 324 320 310 300 319 320 319 318 315 310 317 316 313 316 314 312 310 313 310 307 306 305 306 305 309 306 312 310 309 311 314 321 325
313 314 315 316 315 316 316 318 319 320 325 325 323 318 310 307 317 322 319 314 312 311 308 316 318 315 313 309 313 310 307 307 306 306 306 308 306 305 312 314 310 311 312 318 322
311 313 314 314 315 313 313 316 319 318 325 324 322 318 308 313 319 319 317 311 312 312 312 313 312 316 315 313 308 307 308 302 310 307 306 307 302 312 316 313 310 312 312 314 320
310 312 313 312 314 314 313 315 318 318 325 324 316 314 305 314 313 318 315 308 309 311 312 310 311 309 310 307 304 307 301 303 306 309 308 304 304 311 313 312 310 313 313 312 316
310 312 312 312 312 313 314 316 318 319 322 321 317 308 304 305 314 317 316 312 307 307 305 305 303 301 305 305 296 299 300 302 302 305 304 303 303 308 308 303 306 310 312 311 313
311 312 311 310 311 312 311 311 306 307 313 307 307 307 307 314 316 314 315 309 308 304 297 301 295 294 300 305 306 304 302 301 304 306 302 303 304 306 310 309 306 308 309 309 310
311 311 311 309 309 310 313 303 306 313 303 311 311 311 312 313 305 312 314 304 303 298 302 297 294 303 306 305 303 303 301 300 304 303 301 303 303 307 309 310 311 311 311 312 312
310 310 308 308 308 307 309 307 313 316 301 303 308 305 308 311 305 308 309 306 302 299 298 298 301 305 303 302 301 301 300 300 300 298 299 298 297 301 305 307 308 310 311 313 314
309 308 306 306 303 307 307 313 319 318 293 295 300 301 307 310 303 312 312 306 302 298 300 299 303 302 300 299 301 296 303 301 297 296 293 297 290 299 303 303 305 307 307 309 311
307 306 303 304 298 306 313 317 317 309 281 296 295 306 308 303 303 305 311 305 299 299 298 296 298 298 296 298 302 299 301 299 298 295 295 295 291 296 301 300 302 304 307 307 309
305 305 303 301 302 304 318 316 310 290 281 286 293 293 298 298 301 302 297 303 306 300 300 298 302 300 299 301 302 300 297 296 295 295 288 294 293 294 298 301 303 306 306 307 308
303 305 301 302 295 307 316 307 289 283 286 282 286 292 297 295 295 295 294 293 292 289 291 292 295 298 300 297 299 298 294 286 284 284 285 292 292 295 301 302 301 302 303 305 306
300 304 301 300 302 303 310 296 283 286 286 290 290 294 291 295 295 295 294 291 297 297 293 287 285 294 299 296 293 295 295 288 282 283 287 287 287 294 301 302 303 304 305 305 305
299 300 297 297 300 299 301 285 286 287 288 289 291 288 288 294 293 293 292 293 297 299 292 290 288 297 299 299 296 291 289 296 286 281 284 289 292 297 300 299 301 301 303 303 304
297 295 293 299 300 296 295 287 287 293 293 293 287 290 285 290 291 292 291 297 297 299 301 295 284 293 291 295 295 295 297 287 289 283 281 287 290 291 295 297 299 300 302 303 305
296 289 296 301 299 291 288 285 290 295 297 294 291 290 291 291 293 293 292 297 301 299 299 298 290 286 290 289 289 290 291 292 293 290 285 283 288 299 299 300 300 301 300 300 301
294 284 297 297 285 285 286 288 294 294 299 298 297 296 293 295 292 292 292 296 302 299 292 295 290 283 287 291 294 296 293 293 288 285 289 288 288 299 299 300 300 299 299 301 302
288 287 297 294 284 285 288 290 294 294 296 296 295 297 298 295 290 295 296 300 302 297 293 292 288 282 283 288 290 290 294 295 294 290 287 285 288 299 300 298 299 300 301 300 301
289 284 288 288 285 285 285 288 289 296 295 298 296 297 295 294 296 293 294 297 299 298 297 296 289 287 282 286 289 285 289 292 292 286 286 287 290 296 297 297 298 300 301 302 302
289 285 285 283 286 285 286 290 289 288 292 296 292 295 294 290 292 291 292 293 297 297 296 294 287 289 289 290 290 289 288 289 288 291 287 289 290 293 296 298 299 300 300 300 300
287 286 287 285 285 285 285 287 289 289 291 291 291 295 295 291 292 290 291 293 292 295 294 295 287 288 284 289 289 288 289 290 290 290 291 291 290 297 299 299 299 299 299 299 300
291 291 290 285 285 284 285 286 290 292 294 294 296 295 293 295 297 297 298 296 295 292 292 292 289 286 284 287 288 283 286 289 290 291 291 287 292 297 296 297 298 299 299 299 300
Wind_Speed
18 23 22 22 21 20 18 14 18 22 19 17 16 14 7 8 8 11 15 11 7 10 7 12 6 6 3 3 3 2 5 9 7 2 6 8 8 1 2 5 2 5 2 4 19
19 21 22 22 22 21 19 17 14 24 21 20 18 18 13 10 8 18 8 8 6 12 15 18 14 9 5 5 4 9 9 10 1 7 5 9 6 6 5 6 6 7 5 12 17
18 15 18 20 21 22 22 16 15 28 24 21 21 19 16 13 10 11 12 10 11 15 13 13 11 9 5 4 10 7 10 4 4 4 4 6 7 3 6 6 5 8 12 15 16
18 17 17 18 23 22 24 19 20 24 26 25 24 22 20 8 12 13 18 13 13 17 15 10 15 8 4 10 12 8 13 5 7 5 6 7 5 5 5 2 5 5 13 16 18
16 15 16 14 16 17 22 23 22 24 27 27 26 23 15 7 7 3 19 15 18 15 21 18 18 11 15 8 11 12 7 6 5 6 3 4 4 0 7 4 3 1 9 16 16
16 15 17 17 17 17 17 20 23 24 28 28 29 23 13 14 1 7 13 14 18 17 20 18 10 6 12 12 14 9 6 8 8 7 5 5 8 2 7 6 4 6 9 12 15
18 18 15 18 20 20 11 23 27 24 31 31 29 22 13 16 6 8 13 6 13 12 12 17 8 9 7 6 4 4 10 7 9 9 5 6 15 12 15 8 8 8 9 11 13
21 19 19 18 20 16 15 20 28 24 34 33 33 18 8 3 8 7 14 6 4 2 7 2 4 14 10 9 6 10 9 9 12 11 6 7 17 12 18 13 13 10 9 11 14
22 19 19 20 22 22 16 23 27 27 34 33 21 13 9 7 16 15 12 14 10 3 3 5 7 5 7 12 9 13 10 16 11 11 7 12 10 8 5 10 13 13 11 11 13
22 20 22 22 20 24 17 25 27 29 30 20 14 14 7 18 22 19 13 13 7 13 5 3 3 4 11 15 16 14 16 15 18 11 10 14 16 12 7 5 8 12 14 11 12
22 22 21 16 22 27 18 15 21 22 34 26 23 14 22 24 19 22 26 18 9 6 8 8 9 15 18 17 16 15 15 19 9 6 5 13 17 15 13 12 14 14 14 12 13
22 23 18 16 18 28 20 27 36 8 35 23 25 21 26 30 17 25 26 19 24 24 16 11 18 19 20 18 16 11 13 14 3 5 4 13 22 18 17 17 17 16 16 17 16
20 17 13 16 17 21 28 42 24 26 13 13 21 21 31 31 25 31 31 16 23 25 22 18 12 18 19 19 19 17 16 14 10 5 9 10 21 24 18 21 18 16 18 18 18
16 11 6 14 16 14 31 35 22 24 9 14 20 10 19 19 15 23 25 19 11 24 23 14 11 22 22 22 18 15 12 3 6 5 9 3 9 14 4 6 12 14 17 20 18
11 7 4 6 13 21 25 26 22 2 13 17 11 8 17 27 25 21 20 9 24 20 13 14 18 18 20 23 18 14 12 11 7 8 9 13 9 6 15 15 12 15 14 16 17
7 7 8 5 8 19 22 24 17 12 14 7 10 14 25 17 21 15 6 3 17 17 16 8 6 14 17 14 16 13 12 7 2 4 10 15 14 9 13 14 11 11 6 9 13
9 9 8 3 9 14 25 19 20 17 9 8 11 14 24 25 18 20 21 13 14 17 18 9 12 4 5 19 13 15 18 4 2 4 9 3 10 16 8 10 5 7 7 7 7
11 10 5 3 10 16 21 21 19 12 11 8 19 24 17 30 23 25 25 15 15 17 17 14 8 15 14 22 12 20 16 7 9 9 7 2 12 5 6 6 9 12 11 11 10
7 3 4 3 9 15 20 20 12 17 10 18 27 22 10 24 16 20 19 23 20 21 15 19 9 18 18 10 15 10 11 3 5 2 1 8 11 14 15 14 12 12 13 12 8
3 3 1 5 12 12 21 13 6 17 23 29 22 11 14 16 22 25 25 25 22 19 8 11 9 13 5 6 3 13 15 5 2 6 8 10 15 13 4 7 10 11 11 8 6
2 2 3 6 7 7 16 5 8 20 31 27 28 20 23 35 27 35 37 24 30 25 9 16 9 9 9 8 13 6 14 3 5 6 6 6 10 9 11 11 14 10 2 3 3
2 1 3 6 3 1 9 12 16 26 29 13 16 21 31 32 22 19 24 16 30 23 18 4 7 9 17 2 3 15 16 15 9 9 10 8 13 3 5 7 4 2 1 5 6
2 2 4 4 3 2 7 12 15 31 29 21 20 14 27 27 14 13 20 10 28 26 23 10 7 10 9 5 5 17 17 20 15 4 7 6 12 6 12 7 7 5 5 5 5
3 2 1 1 2 4 5 11 15 26 17 22 19 16 27 21 14 19 17 11 24 27 15 10 4 8 11 6 14 16 24 19 18 6 17 14 24 18 9 8 6 7 9 11 10
2 1 1 1 3 3 1 14 27 18 5 14 12 24 31 20 15 17 21 16 19 17 10 9 6 5 6 4 14 12 19 21 20 28 17 22 21 33 20 11 12 9 9 10 13
2 3 2 3 5 6 4 9 28 16 18 18 19 29 26 22 15 32 23 23 21 19 17 11 3 6 3 7 5 2 19 22 28 27 24 23 21 35 8 11 14 11 10 12 13
1 1 2 2 1 4 3 5 23 17 9 9 24 29 22 20 17 19 16 14 18 22 19 14 6 5 5 6 4 5 22 23 27 29 25 24 37 15 19 13 14 13 14 15 14
Wind_Direction
254 251 250 247 240 226 234 230 270 208 186 175 173 157 173 162 158 182 210 221 199 154 251 160 166 187 195 175 205 249 240 211 201 204 124 156 178 126 15 140 180 156 19 64 136
261 252 239 242 237 233 234 236 250 232 189 175 172 157 148 161 179 211 197 152 167 171 199 182 176 174 190 197 207 216 229 237 285 165 151 165 197 144 205 167 185 173 103 137 144
249 247 242 237 234 227 226 227 233 250 191 171 165 150 148 162 198 220 182 171 187 183 199 190 170 162 148 220 195 201 231 258 143 132 116 141 161 165 231 208 207 195 156 158 157
248 253 248 238 229 221 230 222 234 264 197 170 158 156 144 168 203 199 164 181 173 188 181 158 169 171 139 196 194 204 223 272 138 136 164 165 128 177 226 70 60 1 155 171 177
244 232 243 236 230 236 239 222 232 249 193 168 162 149 141 192 239 148 150 166 172 176 185 174 179 163 195 209 175 218 185 193 168 152 172 159 178 285 241 219 204 202 172 183 193
247 233 229 238 234 235 243 234 228 231 194 170 160 157 162 206 194 177 163 158 175 176 184 186 207 127 203 186 202 193 162 173 162 174 202 243 234 199 216 177 168 182 198 201 203
246 238 236 241 233 223 231 234 229 236 195 165 163 171 180 189 166 180 162 177 172 184 176 181 176 168 154 168 104 139 187 194 184 193 229 230 251 225 247 231 260 201 195 207 206
245 245 229 243 215 231 246 248 228 241 179 168 172 182 179 131 133 141 169 148 110 82 163 112 336 209 205 150 162 198 232 215 197 193 177 191 256 240 231 228 243 240 203 198 208
239 246 232 235 240 250 271 226 230 246 170 165 169 175 165 139 171 180 180 151 132 43 113 121 214 178 171 174 169 208 220 218 205 201 197 209 269 234 286 237 249 251 244 213 210
232 237 231 240 249 244 273 215 222 232 166 164 181 173 172 175 169 162 177 129 118 110 27 112 54 193 211 201 199 189 220 230 227 174 219 228 246 252 215 227 250 255 249 241 219
237 231 229 258 246 283 256 199 207 223 177 188 168 190 155 149 146 171 160 148 120 190 144 222 177 192 205 212 224 220 211 237 213 142 252 240 256 249 249 233 239 252 256 246 232
237 224 236 253 288 305 216 205 211 221 177 214 179 187 153 148 146 165 164 158 164 178 182 169 217 192 196 200 214 236 232 225 180 131 248 277 275 267 254 250 247 246 249 254 249
217 223 242 278 290 283 196 209 199 201 174 211 178 168 157 169 163 164 170 160 179 170 191 194 183 192 197 197 202 211 217 223 232 169 229 275 270 271 248 245 245 239 244 244 247
207 207 253 332 283 232 199 196 182 161 188 179 179 188 169 162 153 163 177 145 170 190 184 221 209 203 195 197 197 206 219 229 209 264 267 62 288 294 289 244 232 231 236 243 239
202 174 34 334 316 212 184 177 173 106 193 166 134 143 185 161 133 179 178 185 178 166 165 180 182 188 199 190 192 223 168 203 224 248 287 256 272 277 244 251 247 252 240 239 243
198 164 79 309 241 265 166 153 155 201 203 159 137 164 176 131 155 148 126 59 178 161 195 138 177 183 206 190 195 141 140 127 176 268 258 249 240 262 250 254 255 236 263 268 242
207 216 151 185 260 310 149 165 176 209 137 171 143 168 164 152 130 153 163 163 157 156 183 129 175 119 211 167 178 168 161 141 160 200 248 7 236 240 295 306 252 260 246 277 266
220 197 138 276 293 303 165 176 201 148 148 173 147 157 159 153 152 163 158 171 175 177 164 163 190 183 182 173 180 191 180 174 196 205 243 119 236 247 215 285 265 235 267 281 246
215 175 143 233 279 286 188 188 177 145 149 145 139 151 148 155 137 158 180 177 191 185 164 178 159 157 181 174 153 175 202 305 99 36 298 228 251 266 241 238 245 247 260 262 263
204 163 221 268 255 264 182 167 137 145 151 149 144 159 153 145 141 164 170 200 185 199 167 153 124 185 148 116 4 184 157 122 224 200 239 249 253 255 191 248 237 238 251 264 231
234 198 134 240 258 247 181 130 141 162 148 161 154 148 164 160 161 175 183 176 191 186 204 166 120 172 138 200 172 180 179 209 183 233 231 265 244 252 233 235 237 252 150 25 29
216 263 0 18 277 331 145 140 144 162 168 169 172 155 166 165 164 169 179 188 178 163 168 142 101 157 189 111 193 188 183 180 185 189 243 280 266 198 185 205 185 11 50 349 307
153 151 154 101 273 162 119 140 157 160 170 155 168 172 162 164 147 185 170 178 163 168 162 163 140 117 174 254 201 215 208 206 223 29 189 195 262 236 193 161 216 313 329 344 335
181 161 292 206 257 360 146 149 142 166 151 165 158 153 157 171 123 182 151 158 162 175 143 132 155 157 185 184 152 197 205 207 210 193 226 217 254 255 219 188 215 250 265 306 295
18 93 239 0 24 330 334 158 147 157 143 148 155 167 161 150 146 161 143 146 168 172 139 153 149 147 74 135 164 193 195 201 208 225 218 236 235 259 247 273 294 317 310 288 275
166 186 212 42 6 331 356 178 152 156 156 167 163 163 163 170 177 164 153 160 166 171 176 187 147 118 107 127 127 153 203 209 214 225 232 248 252 248 283 281 276 272 273 264 268
113 237 288 72 95 313 350 154 160 149 200 163 161 154 170 175 128 141 145 133 149 163 176 176 130 114 187 145 110 281 222 211 217 220 220 231 239 271 273 266 264 271 259 260 265